Weather in Zubutli-Miatli

Russia / Republic of Dagestan     43°11′59″N   46°48′39″E
temp.,
°C
wind,
m/s
gust,
m/s
humid.,
%
clouds,
%
prec.,
mm/h
press.,
hPa
HPBL,
m
24 july, sat
sat2400:00+21w489194 5.9 1009405
03:00+21w489091 6.1 1009326
06:00+22w5108040 0.0 1010561
09:00+26wnw67579 0.0 10101191
12:00+29wnw444795 0.0 10101839
15:00+29w334443 0.1 10091237
18:00+27ese335575 0.0 1011617
21:00+25sse2264100 0.0 101231
25 july, sun
sun2500:00+23e227121 0.1 101223
03:00+22ese227639 0.1 101326
06:00+24ese48692 0.1 1014305
09:00+29ese810380 0.1 10141441
12:00+32e910310 0.0 10132084
15:00+32e99320 0.0 10132003
18:00+29e89370 0.0 10141378
21:00+24e59620 0.0 1016272
26 july, mon
mon2600:00+23ese36690 0.0 1015129
03:00+22e35684 0.0 101591
06:00+24e36610 0.0 1016230
09:00+31e68300 0.0 10151358
12:00+34e89230 0.0 10142071
15:00+34e99230 0.0 10131964
18:00+30e78350 0.0 10141222
21:00+24ene37730 0.1 1016146
27 july, tue
tue2700:00+22ese228221 0.2 101632
03:00+21se1183100 0.4 101512
06:00+21wsw2286100 1.3 101666
09:00+27ese125298 2.4 1015566
12:00+33e45351 0.0 10132192
15:00+32ene873095 0.0 10132017
18:00+26e5850100 0.4 1014546
21:00+22nw3572100 0.5 1017167
28 july, wed
wed2800:00+21w4561100 0.1 1018227
03:00+20w5764100 0.1 1018476
06:00+21wsw3560100 0.0 1018194
09:00+21wnw4660100 0.0 1018334
12:00+24w4446100 0.0 1018669
15:00+26w444077 0.0 1017913
18:00+26wsw343453 0.0 1016839
21:00+21sw33450 0.0 101728